Regional Weather Roundup
Issued by NWS

Home | Current Version | Previous Version | Text Only | Print | Product List | Glossary On
Versions: 1 2 3 4 5 6 7 8 9 10 11 12 13 14 15 16 17 18 19 20 21 22 23 24 25 26 27 28 29 30 31 32 33 34 35 36 37 38 39 40 41 42 43 44 45 46 47 48 49 50
000
ASUS44 KEWX 301510
RWRTX
SOUTH TEXAS REGIONAL WEATHER ROUNDUP
NATIONAL WEATHER SERVICE AUSTIN/SAN ANTONIO TX
1000 AM CDT WED JUL 30 2014

NOTE: "FAIR" INDICATED FEW OR NO CLOUDS BELOW 12,000 FEET WITH NO
SIGNIFICANT WEATHER AND/OR OBSTRUCTIONS TO VISIBILITY.

* - THESE STATIONS ARE NOT NWS OR FAA STATIONS...AND ARE NOT SUBJECT
    TO NWS AND FAA QUALITY CONTROL.

TXZ171-172-183>190-301600-
TEXAS HILL COUNTRY AND EDWARDS PLATEAU

CITY           SKY/WX    TMP DP  RH WIND       PRES   REMARKS
JUNCTION       SUNNY     82  61  48 S10       30.07S
*LLANO         MOSUNNY   82  64  54 S9        30.09S
BURNET         MOSUNNY   78  67  68 S8        30.09F
*HORSESHOE BAY MOSUNNY   80  67  63 S8        30.08R
*KERRVILLE     SUNNY     79  67  66 S13       30.09S
*FREDERICKSBRG MOSUNNY   80  63  55 SW10      30.09S
*ROCKSPRINGS   SUNNY     81  64  57 S14       30.12S
*BOERNE STAGE  SUNNY     79  64  61 S8        30.10R
*CASTROVILLE   MOSUNNY   82  68  61 S6        30.07S
HONDO          MOSUNNY   79  71  76 S6        30.08S
*UVALDE        SUNNY     81  70  70 SE7       30.06S
DEL RIO        SUNNY     83  67  58 SE13      30.01S
LAUGHLIN AFB   SUNNY     83  67  59 SE13      30.02F
CARRIZO SPRGS  SUNNY     82  70  65 S6G16     30.01S
$$

TXZ173-191>194-202-209-217>225-228-301600-
CENTRAL AND SOUTH CENTRAL TEXAS

CITY           SKY/WX    TMP DP  RH WIND       PRES   REMARKS
GEORGETOWN     MOSUNNY   82  72  69 SW10      30.06S
AUSTIN/BERGSTM MOSUNNY   83  70  64 S10       30.05F
AUSTIN/MABRY   MOSUNNY   80  71  74 VRB5      30.06S
*AUSTIN/EXEC   MOSUNNY   81  72  74 S9        30.06S
*LAGO VISTA    SUNNY     80  68  66 S5        30.09R
SAN MARCOS     MOSUNNY   82  68  61 E13       30.07F
NEW BRAUNFELS  MOSUNNY   83  70  64 S6        30.05S
RANDOLPH AFB   MOSUNNY   80  69  68 SW9       30.07S
PT SAN ANTONIO MOSUNNY   82  70  68 S9        30.05S
SAN ANTONIO    MOSUNNY   81  70  69 S10       30.07R
STINSON FIELD  MOSUNNY   81  70  69 S7        30.05R
*PLEASANTON    SUNNY     82  70  66 S8        30.05S
*LA GRANGE     MOSUNNY   83  76  78 S7        30.04S HX  92
*GIDDINGS      MOSUNNY   81  72  73 CALM      30.10S
*GONZALES      PTSUNNY   84  73  69 SW8       30.06R HX  90
$$

TXZ163>164-176>182-195>201-210>213-226-227-235-301600-
SOUTHEAST TEXAS

CITY           SKY/WX    TMP DP  RH WIND       PRES   REMARKS
COLLEGE STN    SUNNY     82  73  74 S12       30.06S
*BRYAN         MOSUNNY   83  74  73 S12       30.05F
*CALDWELL      PTSUNNY   81  75  83 S12       30.09S HAZE
*CROCKETT      SUNNY     81  73  78 SE5       30.11S
*BRENHAM       SUNNY     81  74  79 SE5       30.06S
HUNTSVILLE     MOSUNNY   84  71  65 CALM      30.07F
CONROE         SUNNY     82  72  71 SE6       30.08R
HOUSTON BUSH   PTSUNNY   84  73  69 SE7       30.06R HX  90
HOUSTON HOBBY  MOSUNNY   86  72  62 SE6       30.05S HX  92
*HOUSTON SW AP CLOUDY    84  78  81 S5        30.06R HX  95
PEARLAND       MOSUNNY   86  73  65 S3        30.07R HX  93
HOUSTON HOOKS  MOSUNNY   84  76  76 S7        30.06S HX  93
ELLINGTON FLD  PTSUNNY   84  79  84 E5        30.06S HX  96
SUGAR LAND     CLOUDY    84  75  74 SE3       30.06R HX  92
*HOUSTON EXEC  PTSUNNY   84  73  70 S6        30.07S HX  91
*CLEVELAND MUN PTSUNNY   82  74  77 CALM      30.09R
*WHARTON       MOSUNNY   84  75  74 SE7       30.06S HX  93
$$

TXZ214>216-236>238-301600-
THE UPPER TEXAS COAST

CITY           SKY/WX    TMP DP  RH WIND       PRES   REMARKS
*ORANGE        MOSUNNY   82  69  64 E8        30.09S
PORT ARTHUR    SUNNY     84  71  65 E10       30.07R
GALVESTON      MOSUNNY   88  73  61 E9        30.05S HX  95
ANGLETON       SUNNY     84  76  76 CALM      30.05S HX  93
*BAY CITY      PTSUNNY   85  81  86 S6        30.05R HX 100
PALACIOS       NOT AVBL
$$

TXZ229>234-239>247-301600-
TEXAS COASTAL BEND AND RIO GRANDE PLAINS

CITY           SKY/WX    TMP DP  RH WIND       PRES   REMARKS
VICTORIA       MOSUNNY   87  74  64 S9        30.05R HX  95
*BEEVILLE      MOSUNNY   85  73  67 S13       30.04S HX  91
ROCKPORT       MOSUNNY   85  73  67 S9        30.04R HX  91
*PORT ARANSAS  SUNNY     84  75  74 S10       30.04R HX  92
*PORT LAVACA   MOSUNNY   84  74  71 SW8       30.04S HX  92
*INGLESIDE     PTSUNNY   87  72  61 S12       30.03S HX  93
CORPUS CHRISTI MOSUNNY   85  72  65 S12       30.03S HX  91
CORPUS NAS     MOSUNNY   86  75  69 S10       30.03S HX  95
*ROBSTOWN      NOT AVBL
ALICE          MOSUNNY   85  73  67 S14       30.02S HX  91
KINGSVILLE NAS PTSUNNY   87  75  67 S13G21    30.02S HX  96
COTULLA        SUNNY     83  68  60 S8        30.02S
*FAITH RANCH   SUNNY     82  72  69 SE13      30.02R
LAREDO         SUNNY     86  72  62 S10       30.03S HX  92
$$

TXZ248>255-301600-
DEEP SOUTH TEXAS

CITY           SKY/WX    TMP DP  RH WIND       PRES   REMARKS
BROWNSVILLE    MOSUNNY   88  74  63 S15       30.02S HX  96
PORT ISABEL    MOSUNNY   89  72  56 S13G23    30.02S HX  96
*SOUTH PADRE   SUNNY     86  77  74 SE7       30.03R HX  97
HARLINGEN      MOSUNNY   88  74  63 S17       30.01S HX  96
*HEBBRONVILLE  SUNNY     83  69  61 SE16      30.03S
MCALLEN        SUNNY     87  73  62 S14       30.01S HX  94
*WESLACO       MOSUNNY   87  72  61 S12G20    30.01S HX  93
FALFURRIAS     SUNNY     73  73  99 S13       30.01F
EDINBURG       MOSUNNY   88  73  61 S13G18    30.01S HX  95
*ZAPATA        NOT AVBL
$$

TXZ213>215-236>238-242>244-246-247-251-254-255-301600-
CMAN STATIONS

STATION/POSITION TIME  TEMP    WIND        PRES    WAVE
                       AIR SEA DIR/SP/G            HT/PER
                 (UTC) (F)     (DEG/KT/KT) (MB)    (FT/S)
SABINE PASS      1500   82 86   90/ 12/ 15 1018.2
SEA RIM ST PARK  1500   83      90/ 11/ 13 1018.7
NORTH JETTY/GLS  1500   85 88  140/ 11/ 12   N/A
EAGLE POINT      1500   85 86  150/  9/ 10 1017.6
MORGANS POINT    1500   85 91  110/  9/ 11 1017.6
MISSION/ARANSAS  1400   81     200/ 13     1018.0
PORT O`CONNOR    1500          220/  8/ 11   N/A
PORT ARANSAS     1500   80 80  180/  7/  7 1017.7
MALAQUITE BEACH  1500   79 75  140/  7/  7 1016.4
BAFFIN BAY       1500   81 80  160/ 10/ 12 1016.7
PORT ISABEL      1500   85 82  150/ 11/ 16 1016.9
$$

GMZ080-GMZ150>470-301600-
OFFSHORE BUOY REPORTS

STATION/POSITION TIME  TEMP    WIND        PRES    WAVE
                       AIR SEA DIR/SP/G            HT/PER
                 (UTC) (F)     (DEG/KT/KT) (MB)    (FT/S)
90 E PT ARANSAS  1500   83 83  210/  6/  8 1017.8    1/ 5
35 NE PT MANSFLD 1500   83 84  180/ 10/ 14 1016.7    2/ 4
200 E PT ISABEL  1500   84 86  240/  2/  2 1017.6    1/ 5
$$


USA.gov is the U.S. government's official web portal to all federal, state and local government web resources and services.